FORMOSAT-3 FM5

Last updated on Tue Mar 15 2022 00:02:21 GMT+0000 (Coordinated Universal Time)

1 29049U 06011C 22073.41453874 .00000355 00000+0 15559-3 0 9992 2 29049 72.0226 339.2772 0033918 24.2171 336.0551 14.28957198830254

Satellite not in orbit

FORMOSAT-3 FM5